H1 CPF 2 NER 2025 10 25 9 298 01 glonass141 H2 1908801 9141 44850 2025 10 25 0 0 0 2025 10 28 23 45 0 900 1 1 0 0 0 1 H9 10 0 60973 0.00000 0 3632889.134 16870316.245 18819375.253 10 0 60973 900.00000 0 2025187.361 15053483.776 20524746.486 10 0 60973 1800.00000 0 148246.815 13238581.559 21832702.438 10 0 60973 2700.00000 0 -1965378.995 11486236.133 22717910.600 10 0 60973 3600.00000 0 -4271985.381 9851104.423 23163194.023 10 0 60973 4500.00000 0 -6718294.583 8379693.428 23159862.586 10 0 60973 5400.00000 0 -9243440.737 7108536.017 22707884.321 10 0 60973 6300.00000 0 -11781281.279 6062797.823 21815893.391 10 0 60973 7200.00000 0 -14262940.880 5255372.688 20501034.037 10 0 60973 8100.00000 0 -16619484.117 4686504.025 18788642.503 10 0 60973 9000.00000 0 -18784607.416 4343947.988 16711771.837 10 0 60973 9900.00000 0 -20697239.361 4203671.943 14310567.214 10 0 60973 10800.00000 0 -22303941.673 4231059.487 11631502.372 10 0 60973 11700.00000 0 -23561010.737 4382571.980 8726490.448 10 0 60973 12600.00000 0 -24436191.379 4607797.152 5651885.324 10 0 60973 13500.00000 0 -24909930.316 4851798.658 2467392.048 10 0 60973 14400.00000 0 -24976115.609 5057667.226 -765092.912 10 0 60973 15300.00000 0 -24642269.844 5169165.002 -3982688.823 10 0 60973 16200.00000 0 -23929187.849 5133350.120 -7122761.265 10 0 60973 17100.00000 0 -22870033.288 4903068.991 -10124151.234 10 0 60973 18000.00000 0 -21508931.654 4439208.956 -12928377.619 10 0 60973 18900.00000 0 -19899118.775 3712614.036 -15480788.396 10 0 60973 19800.00000 0 -18100723.023 2705580.664 -17731636.832 10 0 60973 20700.00000 0 -16178275.142 1412868.287 -19637060.634 10 0 60973 21600.00000 0 -14198051.166 -157819.602 -21159944.123 10 0 60973 22500.00000 0 -12225360.880 -1985905.744 -22270646.096 10 0 60973 23400.00000 0 -10321896.433 -4038558.888 -22947578.928 10 0 60973 24300.00000 0 -8543252.771 -6271837.857 -23177627.697 10 0 60973 25200.00000 0 -6936724.012 -8632312.431 -22956401.433 10 0 60973 26100.00000 0 -5539467.809 -11059093.357 -22288312.042 10 0 60973 27000.00000 0 -4377113.887 -13486186.602 -21186479.952 10 0 60973 27900.00000 0 -3462873.858 -15845073.366 -19672468.897 10 0 60973 28800.00000 0 -2797188.071 -18067407.921 -17775855.701 10 0 60973 29700.00000 0 -2367922.460 -20087720.529 -15533644.018 10 0 60973 30600.00000 0 -2151105.034 -21846012.660 -12989534.096 10 0 60973 31500.00000 0 -2112168.947 -23290136.284 -10193063.381 10 0 60973 32400.00000 0 -2207647.811 -24377858.370 -7198635.282 10 0 60973 33300.00000 0 -2387249.937 -25078525.009 -4064455.525 10 0 60973 34200.00000 0 -2596222.500 -25374256.557 -851397.328 10 0 60973 35100.00000 0 -2777904.643 -25260625.004 2378182.147 10 0 60973 36000.00000 0 -2876360.920 -24746786.538 5561650.803 10 0 60973 36900.00000 0 -2838983.464 -23855065.105 8637312.473 10 0 60973 37800.00000 0 -2618952.949 -22620005.640 11545596.325 10 0 60973 38700.00000 0 -2177454.680 -21086937.601 14230202.178 10 0 60973 39600.00000 0 -1485556.702 -19310109.557 16639180.171 10 0 60973 40500.00000 0 -525671.148 -17350473.045 18725924.861 10 0 60973 41400.00000 0 707462.506 -15273208.033 20450065.635 10 0 60973 42300.00000 0 2206313.700 -13145092.559 21778237.381 10 0 60973 43200.00000 0 3950636.589 -11031825.173 22684717.722 10 0 60973 44100.00000 0 5908083.218 -8995410.331 23151919.525 10 0 60973 45000.00000 0 8035329.930 -7091714.177 23170729.880 10 0 60973 45900.00000 0 10279671.852 -5368290.929 22740689.396 10 0 60973 46800.00000 0 12581021.128 -3862569.022 21870008.258 10 0 60973 47700.00000 0 14874227.822 -2600471.524 20575418.202 10 0 60973 48600.00000 0 17091628.962 -1595527.577 18881862.350 10 0 60973 49500.00000 0 19165721.392 -848511.623 16822027.569 10 0 60973 50400.00000 0 21031848.382 -347625.499 14435726.951 10 0 60973 51300.00000 0 22630788.807 -69216.026 11769142.790 10 0 60973 52200.00000 0 23911140.989 21001.608 8873943.261 10 0 60973 53100.00000 0 24831401.156 -33734.311 5806288.753 10 0 60973 54000.00000 0 25361648.646 -183294.494 2625746.299 10 0 60973 54900.00000 0 25484765.962 -373018.416 -605867.201 10 0 60973 55800.00000 0 25197141.041 -546271.220 -3825690.349 10 0 60973 56700.00000 0 24508820.810 -647088.814 -6971047.227 10 0 60973 57600.00000 0 23443108.286 -622797.917 -9980677.163 10 0 60973 58500.00000 0 22035619.237 -426498.569 -12795939.123 10 0 60973 59400.00000 0 20332837.496 -19302.141 -15361966.018 10 0 60973 60300.00000 0 18390229.522 627771.778 -17628745.197 10 0 60973 61200.00000 0 16269997.705 1532321.742 -19552102.916 10 0 60973 62100.00000 0 14038567.278 2699578.078 -21094572.773 10 0 60973 63000.00000 0 11763912.937 4121946.908 -22226130.600 10 0 60973 63900.00000 0 9512837.959 5779105.004 -22924781.200 10 0 60973 64800.00000 0 7348320.325 7638642.354 -23176985.579 10 0 60973 65700.00000 0 5327037.138 9657226.032 -22977920.560 10 0 60973 66600.00000 0 3497170.831 11782236.800 -22331566.211 10 0 60973 67500.00000 0 1896588.329 13953809.875 -21250619.930 10 0 60973 68400.00000 0 551468.276 16107194.320 -19756239.487 10 0 60973 69300.00000 0 -524567.674 18175332.056 -17877620.680 10 0 60973 70200.00000 0 -1330784.985 20091548.406 -15651418.457 10 0 60973 71100.00000 0 -1879116.059 21792241.485 -13121023.399 10 0 60973 72000.00000 0 -2193401.268 23219457.868 -10335708.266 10 0 60973 72900.00000 0 -2308125.347 24323246.984 -7349661.808 10 0 60973 73800.00000 0 -2266704.512 25063696.085 -4220929.159 10 0 60973 74700.00000 0 -2119398.334 25412561.211 -1010280.003 10 0 60973 75600.00000 0 -1920936.031 25354426.732 2219973.119 10 0 60973 76500.00000 0 -1727958.445 24887345.914 5407183.109 10 0 60973 77400.00000 0 -1596384.465 24022936.728 8489579.631 10 0 60973 78300.00000 0 -1578813.316 22785929.996 11407460.093 10 0 60973 79200.00000 0 -1722072.337 21213189.605 14104337.630 10 0 60973 80100.00000 0 -2065013.325 19352246.396 16528024.488 10 0 60973 81000.00000 0 -2636649.939 17259407.229 18631630.754 10 0 60973 81900.00000 0 -3454714.141 14997517.920 20374460.251 10 0 60973 82800.00000 0 -4524692.237 12633472.706 21722787.429 10 0 60973 83700.00000 0 -5839381.136 10235572.936 22650501.435 10 0 60973 84600.00000 0 -7378984.044 7870843.506 23139605.931 10 0 60973 85500.00000 0 -9111742.677 5602417.091 23180565.766 10 0 60974 0.00000 0 -10995080.915 3487093.458 22772494.251 10 0 60974 900.00000 0 -12977215.052 1573172.658 21923177.069 10 0 60974 1800.00000 0 -14999162.970 -101346.319 20648932.494 10 0 60974 2700.00000 0 -16997073.857 -1510131.246 18974308.992 10 0 60974 3600.00000 0 -18904780.746 -2639387.603 16931625.206 10 0 60974 4500.00000 0 -20656471.827 -3488199.844 14560359.603 10 0 60974 5400.00000 0 -22189369.888 -4068328.501 11906400.092 10 0 60974 6300.00000 0 -23446308.297 -4403471.407 9021166.612 10 0 60974 7200.00000 0 -24378095.527 -4528019.698 5960622.565 10 0 60974 8100.00000 0 -24945568.376 -4485360.696 2784193.366 10 0 60974 9000.00000 0 -25121246.503 -4325799.127 -446387.287 10 0 60974 9900.00000 0 -24890517.260 -4104184.701 -3668280.906 10 0 60974 10800.00000 0 -24252299.304 -3877346.939 -6818773.537 10 0 60974 11700.00000 0 -23219155.506 -3701446.829 -9836506.139 10 0 60974 12600.00000 0 -21816848.990 -3629358.776 -12662680.824 10 0 60974 13500.00000 0 -20083359.939 -3708195.320 -15242218.231 10 0 60974 14400.00000 0 -18067403.893 -3977081.191 -17524842.216 10 0 60974 15300.00000 0 -15826513.569 -4465272.658 -19466069.568 10 0 60974 16200.00000 0 -13424764.898 -5190703.357 -21028084.613 10 0 60974 17100.00000 0 -10930243.008 -6159019.477 -22180481.063 10 0 60974 18000.00000 0 -8412354.849 -7363146.195 -22900856.381 10 0 60974 18900.00000 0 -5939101.390 -8783404.494 -23175247.091 10 0 60974 19800.00000 0 -3574423.728 -10388174.006 -22998396.828 10 0 60974 20700.00000 0 -1375734.029 -12135074.265 -22373852.321 10 0 60974 21600.00000 0 608265.953 -13972614.778 -21313886.019 10 0 60974 22500.00000 0 2339388.514 -15842244.504 -19839247.457 10 0 60974 23400.00000 0 3791311.671 -17680714.463 -17978748.887 10 0 60974 24300.00000 0 4950424.059 -19422654.112 -15768693.845 10 0 60974 25200.00000 0 5816129.715 -21003253.163 -13252160.430 10 0 60974 26100.00000 0 6400602.252 -22360936.212 -10478153.843 10 0 60974 27000.00000 0 6728001.104 -23439917.977 -7500645.297 10 0 60974 27900.00000 0 6833185.127 -24192532.170 -4377516.520 10 0 60974 28800.00000 0 6759979.851 -24581236.635 -1169430.933 10 0 60974 29700.00000 0 6559073.240 -24580211.255 2061346.145 10 0 60974 30600.00000 0 6285630.176 -24176482.321 5252155.062 10 0 60974 31500.00000 0 5996727.321 -23370527.041 8341153.572 10 0 60974 32400.00000 0 5748717.165 -22176333.694 11268509.389 10 0 60974 33300.00000 0 5594632.606 -20620915.612 13977550.820 10 0 60974 34200.00000 0 5581741.292 -18743299.839 16415853.820 10 0 60974 35100.00000 0 5749352.337 -16593032.888 18536245.345 10 0 60974 36000.00000 0 6126967.208 -14228265.751 20297704.717 10 0 60974 36900.00000 0 6732852.095 -11713497.342 21666146.707 10 0 60974 37800.00000 0 7573091.510 -9117069.301 22615072.423 10 0 60974 38700.00000 0 8641162.964 -6508514.876 23126076.471 10 0 60974 39600.00000 0 9918051.170 -3955870.488 23189201.322 10 0 60974 40500.00000 0 11372898.036 -1523059.834 22803132.485 10 0 60974 41400.00000 0 12964162.785 732542.562 21975230.675 10 0 60974 42300.00000 0 14641245.506 2762268.663 20721399.864 10 0 60974 43200.00000 0 16346508.247 4527946.697 19065792.890 10 0 60974 44100.00000 0 18017611.085 6003249.819 17040359.019 10 0 60974 45000.00000 0 19590067.191 7174547.951 14684240.784 10 0 60974 45900.00000 0 20999911.215 8041227.389 12043030.190 10 0 60974 46800.00000 0 22186369.972 8615464.715 9167897.219 10 0 60974 47700.00000 0 23094423.538 8921464.196 6114606.321 10 0 60974 48600.00000 0 23677148.723 8994190.445 2942439.095 10 0 60974 49500.00000 0 23897745.403 8877649.517 -286956.384 10 0 60974 50400.00000 0 23731158.939 8622791.035 -3510767.122 10 0 60974 51300.00000 0 23165228.669 8285120.347 -6666243.816 10 0 60974 52200.00000 0 22201312.248 7922122.452 -9691931.746 10 0 60974 53100.00000 0 20854357.830 7590607.840 -12528878.785 10 0 60974 54000.00000 0 19152419.575 7344093.972 -15121795.760 10 0 60974 54900.00000 0 17135635.743 7230334.831 -17420145.304 10 0 60974 55800.00000 0 14854711.632 7289104.712 -19379136.790 10 0 60974 56700.00000 0 12368970.781 7550331.518 -20960607.102 10 0 60974 57600.00000 0 9744056.148 8032659.809 -22133769.460 10 0 60974 58500.00000 0 7049377.849 8742505.386 -22875815.383 10 0 60974 59400.00000 0 4355414.545 9673642.043 -23172358.078 10 0 60974 60300.00000 0 1730981.527 10807338.378 -23017708.864 10 0 60974 61200.00000 0 -759420.327 12113039.045 -22414981.663 10 0 60974 62100.00000 0 -3058064.281 13549561.685 -21376024.099 10 0 60974 63000.00000 0 -5116164.161 15066758.924 -19921177.163 10 0 60974 63900.00000 0 -6895658.021 16607575.134 -18078868.782 10 0 60974 64800.00000 0 -8370536.030 18110411.083 -15885049.853 10 0 60974 65700.00000 0 -9527658.928 19511696.647 -13382484.323 10 0 60974 66600.00000 0 -10367034.889 20748563.118 -10619907.787 10 0 60974 67500.00000 0 -10901545.546 21761502.551 -7651071.546 10 0 60974 68400.00000 0 -11156135.041 22496902.352 -4533691.263 10 0 60974 69300.00000 0 -11166498.493 22909348.683 -1328321.230 10 0 60974 70200.00000 0 -10977327.155 22963602.216 1902823.476 10 0 60974 71100.00000 0 -10640185.902 22636163.738 5097073.760 10 0 60974 72000.00000 0 -10211113.857 21916364.437 8192518.620 10 0 60974 72900.00000 0 -9748050.147 20806935.756 11129199.193 10 0 60974 73800.00000 0 -9308193.680 19324035.488 13850261.997 10 0 60974 74700.00000 0 -8945408.180 17496729.403 16303049.603 10 0 60974 75600.00000 0 -8707781.349 15365950.168 18440108.558 10 0 60974 76500.00000 0 -8635440.270 12982976.806 20220096.163 10 0 60974 77400.00000 0 -8758714.240 10407497.381 21608569.712 10 0 60974 78300.00000 0 -9096721.610 7705334.575 22578644.160 10 0 60974 79200.00000 0 -9656439.654 4945927.217 23111506.558 10 0 60974 80100.00000 0 -10432296.522 2199670.747 23196778.085 10 0 60974 81000.00000 0 -11406302.926 -464774.850 22832717.118 10 0 60974 81900.00000 0 -12548719.017 -2983099.807 22026259.434 10 0 60974 82800.00000 0 -13819229.963 -5297775.184 20792894.286 10 0 60974 83700.00000 0 -15168582.666 -7360199.872 19156377.882 10 0 60974 84600.00000 0 -16540616.898 -9132475.829 17148288.576 10 0 60974 85500.00000 0 -17874607.440 -10588738.346 14807430.899 10 0 60975 0.00000 0 -19107820.350 -11715986.081 12179098.674 10 0 60975 900.00000 0 -20178177.704 -12514376.726 9314208.527 10 0 60975 1800.00000 0 -21026917.631 -12996974.223 6268322.951 10 0 60975 2700.00000 0 -21601139.756 -13188959.788 3100576.270 10 0 60975 3600.00000 0 -21856126.440 -13126338.079 -127472.650 10 0 60975 4500.00000 0 -21757341.305 -12854193.529 -3353039.976 10 0 60975 5400.00000 0 -21282019.013 -12424570.490 -6513344.708 10 0 60975 6300.00000 0 -20420277.302 -11894067.253 -9546840.042 10 0 60975 7200.00000 0 -19175702.437 -11321246.530 -12394423.075 10 0 60975 8100.00000 0 -17565381.624 -10763973.125 -15000598.083 10 0 60975 9000.00000 0 -15619379.450 -10276792.779 -17314569.422 10 0 60975 9900.00000 0 -13379679.266 -9908464.545 -19291241.598 10 0 60975 10800.00000 0 -10898633.235 -9699752.438 -20892106.088 10 0 60975 11700.00000 0 -8236985.675 -9681570.923 -22085997.051 10 0 60975 12600.00000 0 -5461552.476 -9873563.545 -22849700.844 10 0 60975 13500.00000 0 -2642653.790 -10283175.341 -23168407.473 10 0 60975 14400.00000 0 148592.579 -10905258.469 -23035995.415 10 0 60975 15300.00000 0 2843003.958 -11722227.663 -22455144.689 10 0 60975 16200.00000 0 5375977.850 -12704758.689 -21437276.512 10 0 60975 17100.00000 0 7689939.337 -13812999.910 -20002321.342 10 0 60975 18000.00000 0 9736489.479 -14998245.303 -18178320.472 10 0 60975 18900.00000 0 11478166.215 -16204997.812 -16000869.568 10 0 60975 19800.00000 0 12889745.777 -17373335.521 -13512415.625 10 0 60975 20700.00000 0 13959032.073 -18441480.412 -10761421.641 10 0 60975 21600.00000 0 14687103.121 -19348461.081 -7801415.867 10 0 60975 22500.00000 0 15088006.546 -20036757.031 -4689944.677 10 0 60975 23400.00000 0 15187919.170 -20454813.058 -1487449.980 10 0 60975 24300.00000 0 15023808.247 -20559318.014 1743906.593 10 0 60975 25200.00000 0 14641652.561 -20317152.321 4941449.584 10 0 60975 26100.00000 0 14094299.859 -19706922.710 8043202.097 10 0 60975 27000.00000 0 13439051.940 -18720020.187 10989081.288 10 0 60975 27900.00000 0 12735079.748 -17361157.215 13722054.137 10 0 60975 28800.00000 0 12040777.425 -15648361.888 16189231.707 10 0 60975 29700.00000 0 11411166.408 -13612429.390 18342881.625 10 0 60975 30600.00000 0 10895458.084 -11295853.341 20141340.245 10 0 60975 31500.00000 0 10534876.651 -8751280.987 21549808.066 10 0 60975 32400.00000 0 10360832.724 -6039555.488 22541014.179 10 0 60975 33300.00000 0 10393523.600 -3227425.257 23095738.015 10 0 60975 34200.00000 0 10641018.464 -385013.833 23203179.050 10 0 60975 35100.00000 0 11098866.804 2416846.667 22861167.839 10 0 60975 36000.00000 0 11750246.885 5109309.846 22076214.268 10 0 60975 36900.00000 0 12566648.940 7628127.146 20863391.703 10 0 60975 37800.00000 0 13509065.654 9916070.998 19246058.386 10 0 60975 38700.00000 0 14529641.583 11925069.642 17255420.259 10 0 60975 39600.00000 0 15573713.810 13617965.641 14929942.208 10 0 60975 40500.00000 0 16582159.597 14969825.255 12314617.596 10 0 60975 41400.00000 0 17493953.498 15968744.096 9460108.702 10 0 60975 42300.00000 0 18248826.921 16616115.056 6421773.523 10 0 60975 43200.00000 0 18789918.235 16926346.882 3258596.859 10 0 60975 44100.00000 0 19066301.131 16926044.779 32045.987 10 0 60975 45000.00000 0 19035283.464 16652687.157 -3195126.872 10 0 60975 45900.00000 0 18664377.960 16152854.249 -6360111.514 10 0 60975 46800.00000 0 17932859.668 15480083.547 -9401271.483 10 0 60975 47700.00000 0 16832842.386 14692443.250 -12259355.424 10 0 60975 48600.00000 0 15369826.583 13849927.173 -14878663.217 10 0 60975 49500.00000 0 13562693.891 13011782.374 -17208142.915 10 0 60975 50400.00000 0 11443146.874 12233883.766 -19202395.913 10 0 60975 51300.00000 0 9054616.453 11566267.904 -20822569.865 10 0 60975 52200.00000 0 6450682.079 11050931.265 -22037121.270 10 0 60975 53100.00000 0 3693070.499 10719986.846 -22822432.551 10 0 60975 54000.00000 0 849316.730 10594257.415 -23163271.543 10 0 60975 54900.00000 0 -2009814.982 10682364.916 -23053084.677 10 0 60975 55800.00000 0 -4813042.439 10980354.249 -22494118.559 10 0 60975 56700.00000 0 -7491295.892 11471866.790 -21497368.128 10 0 60975 57600.00000 0 -9980353.966 12128855.590 -20082353.027 10 0 60975 58500.00000 0 -12223275.625 12912811.235 -18276727.200 10 0 60975 59400.00000 0 -14172527.610 13776445.705 -16115729.960 10 0 60975 60300.00000 0 -15791719.758 14665762.325 -13641489.840 10 0 60975 61200.00000 0 -17056877.225 15522423.622 -10902195.413 10 0 60975 62100.00000 0 -17957198.277 16286316.527 -7951149.798 10 0 60975 63000.00000 0 -18495267.981 16898206.168 -4845727.796 10 0 60975 63900.00000 0 -18686720.992 17302365.984 -1646256.481 10 0 60975 64800.00000 0 -18559369.765 17449073.141 1585158.541 10 0 60975 65700.00000 0 -18151836.799 17296864.132 4785838.134 10 0 60975 66600.00000 0 -17511750.138 16814455.788 7893742.294 10 0 60975 67500.00000 0 -16693579.350 15982251.163 10848667.035 10 0 60975 68400.00000 0 -15756203.868 14793367.348 13593402.672 10 0 60975 69300.00000 0 -14760316.302 13254142.255 16074831.614 10 0 60975 70200.00000 0 -13765769.781 11384099.208 18244945.315 10 0 60975 71100.00000 0 -12828980.170 9215370.487 20061761.791 10 0 60975 72000.00000 0 -12000491.411 6791603.294 21490127.114 10 0 60975 72900.00000 0 -11322805.050 4166392.691 22502386.596 10 0 60975 73800.00000 0 -10828563.940 1401305.276 23078913.775 10 0 60975 74700.00000 0 -10539165.349 -1436425.976 23208487.766 10 0 60975 75600.00000 0 -10463861.001 -4276441.982 22888512.189 10 0 60975 76500.00000 0 -10599381.583 -7047929.592 22125071.471 10 0 60975 77400.00000 0 -10930101.735 -9682316.519 20932823.027 10 0 60975 78300.00000 0 -11428739.336 -12115879.076 19334726.561 10 0 60975 79200.00000 0 -12057560.804 -14292155.913 17361614.536 10 0 60975 80100.00000 0 -12770043.073 -16164068.345 15051610.649 10 0 60975 81000.00000 0 -13512923.684 -17695659.551 12449406.063 10 0 60975 81900.00000 0 -14228553.885 -18863380.209 9605405.864 10 0 60975 82800.00000 0 -14857456.352 -19656866.528 6574761.070 10 0 60975 83700.00000 0 -15340980.000 -20079177.606 3416304.007 10 0 60975 84600.00000 0 -15623939.550 -20146481.522 191407.188 10 0 60975 85500.00000 0 -15657127.499 -19887202.774 -3037212.106 10 0 60976 0.00000 0 -15399591.001 -19340666.649 -6206717.618 10 0 60976 900.00000 0 -14820575.447 -18555297.235 -9255387.317 10 0 60976 1800.00000 0 -13901050.965 -17586446.174 -12123824.608 10 0 60976 2700.00000 0 -12634754.814 -16493943.445 -14756128.397 10 0 60976 3600.00000 0 -11028703.880 -15339475.179 -17100993.671 10 0 60976 4500.00000 0 -9103153.794 -14183900.069 -19112721.680 10 0 60976 5400.00000 0 -6891004.904 -13084618.845 -20752118.793 10 0 60976 6300.00000 0 -4436678.928 -12093108.826 -21987265.897 10 0 60976 7200.00000 0 -1794512.697 -11252728.395 -22794142.941 10 0 60976 8100.00000 0 973264.150 -10596884.406 -23157096.436 10 0 60976 9000.00000 0 3798883.117 -10147639.874 -23069141.012 10 0 60976 9900.00000 0 6611624.108 -9914820.306 -22532089.549 10 0 60976 10800.00000 0 9340528.002 -9895655.666 -21556509.891 10 0 60976 11700.00000 0 11917121.495 -10074972.077 -20161509.613 10 0 60976 12600.00000 0 14278040.803 -10425924.021 -18374353.652 10 0 60976 13500.00000 0 16367445.317 -10911234.862 -16229922.943 10 0 60976 14400.00000 0 18139121.349 -11484892.079 -13770025.174 10 0 60976 15300.00000 0 19558189.245 -12094224.472 -11042571.761 10 0 60976 16200.00000 0 20602344.009 -12682272.549 -8100637.633 10 0 60976 17100.00000 0 21262579.280 -13190351.200 -5001422.676 10 0 60976 18000.00000 0 21543366.246 -13560695.775 -1805135.599 10 0 60976 18900.00000 0 21462282.005 -13739079.500 1426177.656 10 0 60976 19800.00000 0 21049104.902 -13677291.615 4629837.884 10 0 60976 20700.00000 0 20344416.603 -13335371.766 7743745.429 10 0 60976 21600.00000 0 19397771.044 -12683506.699 10707578.357 10 0 60976 22500.00000 0 18265508.228 -11703509.675 13463953.154 10 0 60976 23400.00000 0 17008305.219 -10389820.621 15959525.985 10 0 60976 24300.00000 0 15688567.221 -8749985.085 18146014.101 10 0 60976 25200.00000 0 14367767.741 -6804591.711 19981118.683 10 0 60976 26100.00000 0 13103848.570 -4586670.282 21429332.430 10 0 60976 27000.00000 0 11948787.382 -2140574.478 22462617.492 10 0 60976 27900.00000 0 10946433.591 479605.465 23060941.716 10 0 60976 28800.00000 0 10130701.844 3212035.871 23212663.664 10 0 60976 29700.00000 0 9524197.718 5989457.653 22914759.467 10 0 60976 30600.00000 0 9137332.476 8741735.178 22172887.197 10 0 60976 31500.00000 0 8967963.637 11398532.170 21001287.110 10 0 60976 32400.00000 0 9001576.595 13892005.565 19422518.907 10 0 60976 33300.00000 0 9212000.207 16159406.975 17467039.858 10 0 60976 34200.00000 0 9562627.209 18145484.765 15172630.562 10 0 60976 35100.00000 0 10008089.135 19804587.397 12583677.877 10 0 60976 36000.00000 0 10496316.304 21102380.546 9750327.429 10 0 60976 36900.00000 0 10970896.799 22017105.910 6727520.837 10 0 60976 37800.00000 0 11373635.376 22540328.484 3573935.387 10 0 60976 38700.00000 0 11647204.137 22677140.151 350846.185 10 0 60976 39600.00000 0 11737772.331 22445810.215 -2879067.112 10 0 60976 40500.00000 0 11597502.908 21876896.885 -6052945.408 10 0 60976 41400.00000 0 11186808.635 21011856.691 -9108982.494 10 0 60976 42300.00000 0 10476270.397 19901210.358 -11987639.486 10 0 60976 43200.00000 0 9448134.477 18602342.722 -14632816.475 10 0 60976 44100.00000 0 8097323.424 17177030.121 -16992957.308 10 0 60976 45000.00000 0 6431915.865 15688800.361 -19022064.766 10 0 60976 45900.00000 0 4473073.303 14200237.579 -20680605.399 10 0 60976 46800.00000 0 2254415.565 12770346.502 -21936285.731 10 0 60976 47700.00000 0 -179129.889 11452087.924 -22764684.290 10 0 60976 48600.00000 0 -2772957.200 10290189.663 -23149727.100 10 0 60976 49500.00000 0 -5464822.070 9319325.198 -23083997.572 10 0 60976 50400.00000 0 -8187207.238 8562736.322 -22568875.131 10 0 60976 51300.00000 0 -10869914.706 8031357.017 -21614500.446 10 0 60976 52200.00000 0 -13442776.493 7723474.282 -20239568.535 10 0 60976 53100.00000 0 -15838370.874 7624938.823 -18470954.451 10 0 60976 54000.00000 0 -17994631.037 7709915.116 -16343179.485 10 0 60976 54900.00000 0 -19857237.766 7942137.598 -13897728.892 10 0 60976 55800.00000 0 -21381697.015 8276618.383 -11182235.086 10 0 60976 56700.00000 0 -22535016.598 8661732.969 -8249542.767 10 0 60976 57600.00000 0 -23296913.266 9041594.599 -5156674.729 10 0 60976 58500.00000 0 -23660501.180 9358615.991 -1963719.020 10 0 60976 59400.00000 0 -23632434.663 9556149.524 1267340.459 10 0 60976 60300.00000 0 -23232501.038 9581093.953 4473826.932 10 0 60976 61200.00000 0 -22492682.270 9386357.442 7593583.669 10 0 60976 62100.00000 0 -21455726.273 8933073.113 10566173.462 10 0 60976 63000.00000 0 -20173288.938 8192473.880 13334041.693 10 0 60976 63900.00000 0 -18703725.518 7147347.910 15843621.013 10 0 60976 64800.00000 0 -17109624.181 5793013.663 18046357.127 10 0 60976 65700.00000 0 -15455184.792 4137773.458 19899636.879 10 0 60976 66600.00000 0 -13803551.917 2202826.209 21367601.861 10 0 60976 67500.00000 0 -12214212.556 21642.130 22421833.021 10 0 60976 68400.00000 0 -10740566.049 -2361175.726 23041894.116 10 0 60976 69300.00000 0 -9427766.295 -4891497.264 23215724.358 10 0 60976 70200.00000 0 -8310925.133 -7507673.605 22939873.178 10 0 60976 71100.00000 0 -7413750.823 -10142866.459 22219572.657 10 0 60976 72000.00000 0 -6747677.787 -12727603.959 21068645.843 10 0 60976 72900.00000 0 -6311523.682 -15192458.818 19509251.952 10 0 60976 73800.00000 0 -6091688.191 -17470739.262 17571472.177 10 0 60976 74700.00000 0 -6062885.646 -19501082.082 15292742.727 10 0 60976 75600.00000 0 -6189381.364 -21229840.674 12717144.510 10 0 60976 76500.00000 0 -6426680.486 -22613168.749 9894561.705 10 0 60976 77400.00000 0 -6723598.859 -23618712.416 6879724.267 10 0 60976 78300.00000 0 -7024629.059 -24226839.203 3731151.937 10 0 60976 79200.00000 0 -7272501.717 -24431351.554 510019.714 10 0 60976 80100.00000 0 -7410833.410 -24239653.779 -2721033.248 10 0 60976 81000.00000 0 -7386748.232 -23672364.446 -5899127.748 10 0 60976 81900.00000 0 -7153360.652 -22762389.678 -8962377.114 10 0 60976 82800.00000 0 -6672012.856 -21553495.931 -11851103.100 10 0 60976 83700.00000 0 -5914169.868 -20098442.213 -14509010.213 10 0 60976 84600.00000 0 -4862890.221 -18456750.728 -16884294.314 10 0 60976 85500.00000 0 -3513808.004 -16692210.400 -18930662.690 99